This demonstration page uses our WeatherBlox Daily Observations layout. Learn more.

Left ArrowRight Arrow

39.51506, -84.39828

Hourly Observations for April 26, 2020

Temp ( °F °C ) Dew Point ( °F °C ) Humidity (%) Winds ( mph kmh ) Pressure ( in mb ) Visibility ( mi km ) Precip ( " mm )
12:15 am 00:15 Cloudy 52 11 50 9.9 93 93 NNE 9 15 29.74 1007 N/A N/A
12:35 am 00:35 undefined 51 10.8 49 9.5 92 92 N 8 13 29.74 1007 N/A N/A
12:55 am 00:55 undefined 51 10.3 49 9.5 95 95 N 8 13 29.74 1007 N/A N/A
1:15 am 01:15 undefined 50 10.1 49 9.4 95 95 N 7 11 29.74 1007 N/A N/A
1:35 am 01:35 Cloudy 50 10.1 49 9.4 95 95 N 7 11 29.74 1007 N/A N/A
1:55 am 01:55 undefined 50 10.2 49 9.3 94 94 N 9 15 29.73 1007 N/A N/A
2:15 am 02:15 Cloudy 50 10.2 48 9.1 93 93 N 8 13 29.73 1007 N/A N/A
2:35 am 02:35 Cloudy 50 9.9 48 9 94 94 N 10 17 29.73 1007 N/A N/A
2:55 am 02:55 Cloudy 49 9.4 47 8.5 94 94 N 12 19 29.73 1007 N/A N/A
3:15 am 03:15 undefined 49 9.2 47 8.3 94 94 N 13 20 29.72 1006 N/A N/A
3:35 am 03:35 undefined 47 8.6 46 7.5 93 93 N 13 20 29.72 1007 N/A N/A
3:55 am 03:55 Cloudy 47 8.3 45 7.4 94 94 N 13 20 29.72 1007 N/A N/A
4:15 am 04:15 Cloudy 47 8.1 44 6.9 92 92 N 10 17 29.72 1007 N/A N/A
4:35 am 04:35 undefined 46 7.8 44 6.8 93 93 N 12 19 29.73 1007 N/A N/A
4:55 am 04:55 undefined 46 7.7 44 6.8 94 94 N 12 19 29.73 1007 N/A N/A
5:15 am 05:15 undefined 46 7.6 44 6.9 95 95 N 10 17 29.74 1007 N/A N/A
5:35 am 05:35 undefined 46 7.7 45 7 95 95 NNE 9 15 29.74 1007 N/A N/A
5:55 am 05:55 undefined 46 7.8 44 6.9 94 94 N 10 17 29.74 1007 N/A N/A
6:15 am 06:15 Cloudy 46 7.7 44 6.8 94 94 N 9 15 29.74 1007 N/A N/A
6:35 am 06:35 Cloudy 46 7.6 44 6.7 94 94 N 12 19 29.75 1008 N/A N/A
6:55 am 06:55 Cloudy 45 7.4 44 6.5 94 94 N 10 17 29.76 1008 N/A N/A
7:15 am 07:15 Cloudy 45 7.3 43 6.3 93 93 N 12 19 29.77 1008 N/A N/A
7:35 am 07:35 Cloudy 45 7.2 43 6 92 92 N 13 20 29.78 1008 N/A N/A
7:55 am 07:55 Cloudy 45 7 43 5.9 93 93 N 13 20 29.79 1009 N/A N/A
8:15 am 08:15 Cloudy 44 6.9 42 5.7 92 92 N 10 17 29.79 1009 N/A N/A
8:35 am 08:35 Cloudy 44 6.9 42 5.8 93 93 N 12 19 29.80 1009 N/A N/A
8:55 am 08:55 Cloudy 44 6.8 42 5.5 92 92 N 13 20 29.80 1009 N/A N/A
9:15 am 09:15 Cloudy 44 6.7 42 5.3 91 91 N 16 26 29.81 1009 N/A N/A
9:35 am 09:35 Cloudy 44 6.7 42 5.5 92 92 NNW 12 19 29.81 1009 N/A N/A
9:55 am 09:55 Cloudy 44 6.9 42 5.8 93 93 N 13 20 29.81 1009 N/A N/A
10:15 am 10:15 Cloudy 45 7.1 43 6 93 93 N 15 24 29.82 1010 N/A N/A
10:35 am 10:35 Cloudy 46 7.5 43 6.2 92 92 N 14 22 29.82 1010 N/A N/A
10:55 am 10:55 Cloudy 46 7.7 44 6.5 92 92 NNW 17 28 29.82 1010 N/A N/A
11:15 am 11:15 Cloudy 46 7.8 44 6.6 92 92 NNW 14 22 29.83 1010 N/A N/A
11:35 am 11:35 Cloudy 46 7.9 44 6.6 92 92 NNW 16 26 29.83 1010 N/A N/A
11:55 am 11:55 Cloudy 47 8.2 44 6.9 92 92 NNW 14 22 29.84 1011 N/A N/A
12:15 pm 12:15 Cloudy 47 8.4 44 6.8 90 90 N 17 28 29.84 1011 N/A N/A
12:35 pm 12:35 Cloudy 48 8.8 45 7.1 89 89 NNW 15 24 29.85 1011 N/A N/A
12:55 pm 12:55 Cloudy 49 9.2 45 7.1 87 87 N 17 28 29.85 1011 N/A N/A
1:15 pm 13:15 Cloudy 49 9.6 45 7.3 86 86 N 17 28 29.86 1011 N/A N/A
1:35 pm 13:35 Cloudy 50 9.8 45 7.3 85 85 N 18 30 29.87 1011 N/A N/A
1:55 pm 13:55 Cloudy 50 10 45 7.3 83 83 N 17 28 29.87 1011 N/A N/A
2:15 pm 14:15 Cloudy 50 10.2 46 7.6 84 84 N 16 26 29.88 1012 N/A N/A
2:35 pm 14:35 Cloudy 50 10 45 7.4 84 84 N 16 26 29.90 1012 N/A N/A
2:55 pm 14:55 Cloudy 50 10.1 46 7.7 85 85 N 15 24 29.91 1013 N/A N/A
3:15 pm 15:15 Cloudy 50 10 45 7.1 82 82 N 16 26 29.92 1013 N/A N/A
3:35 pm 15:35 Cloudy 50 10.1 45 7.1 82 82 N 16 26 29.93 1013 N/A N/A
3:55 pm 15:55 Cloudy 51 10.4 46 7.6 83 83 N 16 26 29.94 1014 N/A N/A
4:15 pm 16:15 Cloudy 51 10.3 46 7.5 83 83 NNW 16 26 29.95 1014 N/A N/A
4:35 pm 16:35 Cloudy 51 10.4 45 7.4 82 82 N 21 33 29.96 1014 N/A N/A
4:55 pm 16:55 Cloudy 52 11 44 6.7 75 75 N 17 28 29.97 1015 N/A N/A
5:15 pm 17:15 Cloudy 53 11.5 44 6.4 71 71 N 21 33 29.98 1015 N/A N/A
5:35 pm 17:35 Cloudy 53 11.6 43 6.3 70 70 N 14 22 29.98 1015 N/A N/A
5:55 pm 17:55 Cloudy 54 12 43 6.1 67 67 NNE 15 24 29.99 1016 N/A N/A
6:15 pm 18:15 Cloudy 53 11.8 42 5.7 66 66 N 12 19 30.00 1016 N/A N/A
6:35 pm 18:35 Cloudy 54 12 43 5.9 67 67 NNE 12 19 30.01 1016 N/A N/A
6:55 pm 18:55 Sunny 54 12.4 43 6.3 67 67 N 10 17 30.02 1017 N/A N/A
7:15 pm 19:15 Sunny 54 12.4 42 5.8 64 64 NNE 9 15 30.03 1017 N/A N/A
7:35 pm 19:35 Sunny 53 11.9 43 5.9 67 67 N 6 9 30.03 1017 N/A N/A
7:55 pm 19:55 Sunny 53 11.9 43 6 67 67 N 3 6 30.04 1017 N/A N/A
8:15 pm 20:15 Sunny 52 11.3 43 6 70 70 N N/A 30.05 1017 N/A N/A
8:35 pm 20:35 undefined 50 9.8 46 7.6 86 86 N N/A 30.06 1018 N/A N/A
8:55 pm 20:55 undefined 46 7.5 44 6.7 95 95 N N/A 30.08 1018 N/A N/A
9:15 pm 21:15 undefined 44 6.5 43 6.1 97 97 N N/A 30.09 1019 N/A N/A
9:35 pm 21:35 undefined 44 6.8 44 6.5 98 98 N N/A 30.10 1019 N/A N/A
9:55 pm 21:55 undefined 44 6.7 44 6.4 98 98 N N/A 30.11 1020 N/A N/A
10:15 pm 22:15 Mostly Cloudy 44 6.6 44 6.4 99 99 NNE 3 6 30.13 1020 N/A N/A
10:35 pm 22:35 undefined 43 6.3 43 6 98 98 N N/A 30.14 1021 N/A N/A
10:55 pm 22:55 undefined 42 5.8 42 5.7 99 99 N N/A 30.15 1021 N/A N/A
11:15 pm 23:15 undefined 41 5.2 41 5.1 99 99 N N/A 30.16 1021 N/A N/A
11:35 pm 23:35 undefined 41 5.1 41 5 99 99 N N/A 30.16 1021 N/A N/A
11:55 pm 23:55 undefined 41 5 39 4 93 93 N N/A 30.16 1021 N/A N/A

Powered by AerisWeather